Weather Roundup
Issued by NWS

Home | Current Version | Previous Version | Graphics & Text | Print | Product List | Glossary Off
Versions: 1 2 3 4 5 6 7 8 9 10 11 12 13 14 15 16 17 18 19 20 21 22 23 24 25 26 27 28 29 30 31 32 33 34 35 36 37 38 39 40 41 42 43 44 45 46 47 48 49 50

007
NZUS93 KARX 201859
HRRWXR

CURRENT HOURLY OBSERVATIONS ACROSS
MUCH OF THE UPPER MISSISSIPPI VALLEY
NATIONAL WEATHER SERVICE LA CROSSE WI
200 PM CDT FRI OCT 20 2017


...SOUTHEAST MINNESOTA...


CITY           SKY/WX    TMP DP  RH WIND       PRES   REMARKS
ROCHESTER      SUNNY     72  49  44 S22G31    29.89F
ROCHESTER/MAYO FAIR      74  45  35 S18G26    29.89F
WINONA         SUNNY     77  46  33 S9        29.91F
AUSTIN         MOSUNNY   72  50  46 S15G21    29.87F
ALBERT LEA     NOT AVBL
DODGE CENTER   MOSUNNY   72  46  40 S22       29.87F
PRESTON        MOSUNNY   72  44  36 S20G26    29.92F
OWATONNA       MOSUNNY   73  52  46 S20G25    29.83F
FARIBAULT      MOSUNNY   75  50  41 S16G26    29.82F
$$

...ELSEWHERE IN MINNESOTA...


CITY           SKY/WX    TMP DP  RH WIND       PRES   REMARKS
MINNEAPOLIS    SUNNY     76  51  41 S21G30    29.79F
INTNL FALLS    SUNNY     77  47  34 S10G18    29.61F
DULUTH         SUNNY     72  50  45 S16       29.77F
RED WING       MOSUNNY   77  43  29 S10G18    29.83F
REDWOOD FALLS  SUNNY     77  51  40 S28G37    29.70F
MANKATO        SUNNY     76  51  41 S20G30    29.79F
WORTHINGTON    SUNNY     75  54  47 S18G30    29.74F
FAIRMONT       NOT AVBL
$$

...SOUTHWEST WISCONSIN...


CITY           SKY/WX    TMP DP  RH WIND       PRES   REMARKS
LA CROSSE      SUNNY     75  52  44 S16       29.93F
PRAIRIE DU CHI SUNNY     74  49  40 SE10      29.97F
BOSCOBEL       SUNNY     77  52  41 VRB6      29.98F
LONE ROCK      NOT AVBL
PLATTEVILLE    SUNNY     73  54  50 S13       30.03F
FORT MC COY    SUNNY     75  49  39 S10G16    29.97F
MAUSTON-NEW LI CLEAR     75  47  37 SW10G18   29.98F
VIROQUA        FAIR      73  50  44 S14G21    29.98F
WIS DELLS      SUNNY     73  48  41 S9        30.01F
$$

...ELSEWHERE IN WISCONSIN...


CITY           SKY/WX    TMP DP  RH WIND       PRES   REMARKS
MILWAUKEE      PTSUNNY   79  51  37 SW12      30.06F
MADISON        PTSUNNY   73  48  41 S14       30.03F
GREEN BAY      SUNNY     73  54  51 S13G20    30.00F
EAU CLAIRE     NOT AVBL
BLACK RVR FLS  FAIR      79  41  25 S13G18    29.93F
MEDFORD        SUNNY     72  50  45 S16       29.95F
WAUSAU         SUNNY     73  49  42 S12       29.95F
WIS RAPIDS     SUNNY     75  49  39 SW9       29.98F
MARSHFIELD     SUNNY     75  47  36 S14       29.95F
RICE LAKE      SUNNY     73  48  40 S15       29.88F
$$

...NORTHEAST IOWA...


CITY           SKY/WX    TMP DP  RH WIND       PRES   REMARKS
WATERLOO       CLOUDY    74  45  35 S15       29.93F
DUBUQUE        SUNNY     73  50  44 S17       30.02F
DECORAH        SUNNY     75  46  35 S12G21    29.94F
MASON CITY     SUNNY     74  50  42 S18G33    29.88F
CHARLES CITY   SUNNY     75  43  31 S15G22    29.92F
OELWEIN        CLOUDY    73  50  43 S18       29.96F
$$

...ELSEWHERE IN IOWA...


CITY           SKY/WX    TMP DP  RH WIND       PRES   REMARKS
DES MOINES     CLOUDY    76  54  46 S18G25    29.92F
IOWA CITY      MOSUNNY   77  52  41 S14       30.02F
FORT DODGE     MOSUNNY   74  54  49 S16G24    29.85F
MARSHALLTOWN   MOSUNNY   73  54  51 S18       29.93F
CEDAR RAPIDS   MOSUNNY   74  49  41 S14       29.99F
$$

...NORTHERN ILLINOIS...


CITY           SKY/WX    TMP DP  RH WIND       PRES   REMARKS
CHICAGO-OHARE  PTSUNNY   77  51  40 S14       30.09F
CHICAGO-MIDWAY PTSUNNY   78  51  38 S13       30.10F
MOLINE         MOSUNNY   77  48  35 S12       30.03F
ROCKFORD       PTSUNNY   78  49  35 S15       30.07F
PEORIA         CLOUDY    77  53  43 S13       30.08F
$$

NOTE: "FAIR" INDICATES FEW OR NO CLOUDS BELOW 12,000 FEET WITH NO
SIGNIFICANT WEATHER AND/OR OBSTRUCTIONS TO VISIBILITY. WIND
SPEEDS ARE IN MILES-PER-HOUR.




USA.gov is the U.S. government's official web portal to all federal, state and local government web resources and services.